User: anonymous   Login
Location: Unspecified
(0.0000°N, 0.0000°E)
Time: 18:52:40
(UTC+00:00)
Language:

SWAYAM - Orbit

View from above orbital plane
View from above orbital plane
View from above satellite
View from above satellite

Ground track
Ground track

The orbit data is extracted from the following two-line orbital elements,

1 41607U 16040J   18351.42501174  .00001086  00000-0  49459-4 0  9991
2 41607  97.3916  51.6869 0012418 320.8687  39.1650 15.22764273137981
Epoch (UTC): 17 December 2018 10:12:01
Eccentricity: 0.0012418
inclination: 97.3916°
perigee height: 489 km
apogee height: 506 km
right ascension of ascending node: 51.6869°
argument of perigee: 320.8687°
revolutions per day: 15.22764273
mean anomaly at epoch: 39.1650°
orbit number at epoch: 13798

The dashed part of the orbit path shows where the satellite is in the earth's shadow,  

DLR